Location: Newark
(34.9500°N, 139.9667°E)
Time: 15:34:18
(UTC+00:00)

Vanguard 1 Rocket - Pass Details

Date: 11 December 2019
Orbit: 651 x 4226 km, 34.3° (Epoch: 28 January)

Event Time Altitude Azimuth Distance (km) Brightness Sun altitude
Rises 18:24:29 0° 272° (W) 3,773 - -38.8°
Reaches altitude 10° 18:30:11 10° 231° (SW) 2,272 - -37.6°
Maximum altitude 18:30:51 10° 223° (SW) 2,209 - -37.5°
Drops below altitude 10° 18:31:30 10° 215° (SW) 2,184 - -37.3°
Sets 18:36:05 0° 169° (S) 2,942 - -36.4°
